• In Deutschland
  • Länderverzeichnis
  • Für 7 Tage
  • Wassertemperatur
  • Satellitenkarten
  • Wetterkarte
  • Widgets
  • user-avatar
    Anmelden

    Stündliche Wetter Darwin

    Heute, 19 Januar, Freitag

    Zeit Temperatur Niederschläge Wind Luftdruck Luftfeuchtigkeit
    00:00 +28°C° 1,1 mm 2 m/S 754 mmHg 91%
    01:00 +28°C° 0,2 mm 2 m/S 754 mmHg 91%
    02:00 +27°C° 0,2 mm 2 m/S 754 mmHg 91%
    03:00 +27°C° 0 mm 1 m/S 753 mmHg 91%
    04:00 +27°C° 0,2 mm 1 m/S 754 mmHg 91%
    05:00 +27°C° 0,2 mm 1 m/S 754 mmHg 91%
    06:00 +27°C° 0,2 mm 1 m/S 754 mmHg 91%
    07:00 +28°C° 0,6 mm 1 m/S 754 mmHg 86%
    08:00 +29°C° 0,6 mm 2 m/S 754 mmHg 81%
    09:00 +30°C° 0 mm 2 m/S 755 mmHg 79%
    10:00 +32°C° 0,6 mm 2 m/S 754 mmHg 72%
    11:00 +33°C° 0,6 mm 1 m/S 754 mmHg 65%
    12:00 +35°C° 0,6 mm 1 m/S 753 mmHg 58%
    13:00 +35°C° 1,3 mm 1 m/S 753 mmHg 61%
    14:00 +34°C° 1,3 mm 1 m/S 752 mmHg 64%
    15:00 +34°C° 1,3 mm 2 m/S 752 mmHg 66%
    16:00 +34°C° 1,2 mm 2 m/S 752 mmHg 70%
    17:00 +32°C° 1,2 mm 2 m/S 752 mmHg 75%
    18:00 +31°C° 1,2 mm 2 m/S 752 mmHg 79%
    19:00 +30°C° 1,6 mm 2 m/S 753 mmHg 81%
    20:00 +29°C° 1,6 mm 2 m/S 753 mmHg 84%
    21:00 +29°C° 1,6 mm 2 m/S 753 mmHg 86%
    22:00 +29°C° 1,2 mm 2 m/S 753 mmHg 87%
    23:00 +28°C° 1,2 mm 2 m/S 753 mmHg 87%

    Morgen, 20 Januar, Samstag

    Zeit Temperatur Niederschläge Wind Luftdruck Luftfeuchtigkeit
    00:00 +28°C° 1,2 mm 2 m/S 753 mmHg 88%
    01:00 +28°C° 1,5 mm 1 m/S 753 mmHg 88%
    02:00 +28°C° 1,5 mm 1 m/S 752 mmHg 88%
    03:00 +28°C° 1,5 mm 1 m/S 752 mmHg 89%
    04:00 +28°C° 0,4 mm 1 m/S 752 mmHg 88%
    05:00 +28°C° 0,4 mm 1 m/S 752 mmHg 88%
    06:00 +28°C° 0,4 mm 1 m/S 752 mmHg 88%
    07:00 +29°C° 0,2 mm 2 m/S 753 mmHg 84%
    08:00 +30°C° 0,2 mm 2 m/S 753 mmHg 80%
    09:00 +31°C° 0,2 mm 2 m/S 753 mmHg 76%
    10:00 +31°C° 1,7 mm 2 m/S 753 mmHg 75%
    11:00 +33°C° 1,7 mm 3 m/S 752 mmHg 74%
    12:00 +33°C° 1,7 mm 3 m/S 752 mmHg 73%
    13:00 +33°C° 2 mm 3 m/S 752 mmHg 74%
    14:00 +33°C° 2 mm 4 m/S 751 mmHg 75%
    15:00 +33°C° 2 mm 4 m/S 751 mmHg 75%
    16:00 +32°C° 1,8 mm 4 m/S 751 mmHg 79%
    17:00 +32°C° 1,8 mm 4 m/S 751 mmHg 82%
    18:00 +30°C° 1,8 mm 4 m/S 751 mmHg 85%
    19:00 +30°C° 0,7 mm 4 m/S 751 mmHg 86%
    20:00 +29°C° 0,7 mm 3 m/S 752 mmHg 86%
    21:00 +29°C° 0,7 mm 3 m/S 752 mmHg 87%
    22:00 +29°C° 2,9 mm 4 m/S 752 mmHg 88%
    23:00 +29°C° 2,9 mm 4 m/S 752 mmHg 88%

    übermorgen, 21 Januar, Sonntag

    Zeit Temperatur Niederschläge Wind Luftdruck Luftfeuchtigkeit
    00:00 +29°C° 2,9 mm 4 m/S 752 mmHg 89%
    01:00 +28°C° 3,4 mm 4 m/S 751 mmHg 89%
    02:00 +28°C° 3,4 mm 4 m/S 751 mmHg 89%
    03:00 +28°C° 3,4 mm 4 m/S 750 mmHg 89%
    04:00 +28°C° 1,6 mm 5 m/S 751 mmHg 89%
    05:00 +28°C° 1,6 mm 5 m/S 751 mmHg 89%
    06:00 +28°C° 1,6 mm 5 m/S 751 mmHg 89%
    07:00 +29°C° 0,8 mm 5 m/S 751 mmHg 87%
    08:00 +30°C° 0,8 mm 5 m/S 752 mmHg 85%
    09:00 +30°C° 0,8 mm 5 m/S 752 mmHg 83%
    10:00 +30°C° 1,8 mm 6 m/S 752 mmHg 83%
    11:00 +32°C° 1,8 mm 6 m/S 752 mmHg 82%
    12:00 +32°C° 1,8 mm 6 m/S 751 mmHg 81%
    13:00 +32°C° 1,9 mm 6 m/S 751 mmHg 82%
    14:00 +32°C° 1,9 mm 6 m/S 750 mmHg 82%
    15:00 +30°C° 1,9 mm 5 m/S 749 mmHg 83%
    16:00 +30°C° 2,2 mm 5 m/S 750 mmHg 86%
    17:00 +29°C° 2,2 mm 5 m/S 750 mmHg 88%
    18:00 +28°C° 2,2 mm 4 m/S 750 mmHg 90%
    19:00 +28°C° 3,5 mm 4 m/S 751 mmHg 91%
    20:00 +28°C° 3,5 mm 4 m/S 751 mmHg 91%
    21:00 +28°C° 3,5 mm 4 m/S 752 mmHg 91%
    22:00 +28°C° 2,7 mm 4 m/S 752 mmHg 91%
    23:00 +28°C° 2,7 mm 3 m/S 752 mmHg 92%

    22 Januar, Montag

    Zeit Temperatur Niederschläge Wind Luftdruck Luftfeuchtigkeit
    00:00 +28°C° 2,7 mm 3 m/S 752 mmHg 92%
    01:00 +28°C° 2,4 mm 4 m/S 751 mmHg 92%
    02:00 +27°C° 2,4 mm 4 m/S 751 mmHg 92%
    03:00 +27°C° 2,4 mm 5 m/S 750 mmHg 92%
    04:00 +27°C° 3 mm 5 m/S 750 mmHg 92%
    05:00 +27°C° 3 mm 6 m/S 751 mmHg 92%
    06:00 +27°C° 3 mm 6 m/S 751 mmHg 91%
    07:00 +28°C° 1,8 mm 6 m/S 751 mmHg 90%
    08:00 +28°C° 1,8 mm 6 m/S 752 mmHg 89%
    09:00 +29°C° 1,8 mm 6 m/S 752 mmHg 87%
    10:00 +29°C° 1,8 mm 6 m/S 752 mmHg 86%
    11:00 +30°C° 1,8 mm 6 m/S 751 mmHg 84%
    12:00 +30°C° 1,8 mm 6 m/S 751 mmHg 83%
    13:00 +30°C° 2,2 mm 6 m/S 751 mmHg 84%
    14:00 +29°C° 2,2 mm 6 m/S 750 mmHg 85%
    15:00 +29°C° 2,2 mm 7 m/S 750 mmHg 86%
    16:00 +29°C° 2,7 mm 7 m/S 750 mmHg 87%
    17:00 +28°C° 2,7 mm 7 m/S 750 mmHg 88%
    18:00 +28°C° 2,7 mm 7 m/S 750 mmHg 89%
    19:00 +28°C° 2,2 mm 6 m/S 751 mmHg 89%
    20:00 +28°C° 2,2 mm 6 m/S 751 mmHg 89%
    21:00 +28°C° 2,2 mm 6 m/S 752 mmHg 89%
    22:00 +28°C° 1,9 mm 6 m/S 752 mmHg 89%
    23:00 +28°C° 1,9 mm 6 m/S 752 mmHg 89%

    23 Januar, Dienstag

    Zeit Temperatur Niederschläge Wind Luftdruck Luftfeuchtigkeit
    00:00 +28°C° 1,9 mm 6 m/S 752 mmHg 89%
    01:00 +28°C° 1,3 mm 6 m/S 751 mmHg 88%
    02:00 +28°C° 1,3 mm 6 m/S 751 mmHg 88%
    03:00 +28°C° 1,3 mm 6 m/S 750 mmHg 87%
    04:00 +28°C° 0,9 mm 6 m/S 750 mmHg 88%
    05:00 +28°C° 0,9 mm 6 m/S 751 mmHg 88%
    06:00 +27°C° 0,9 mm 6 m/S 751 mmHg 88%
    07:00 +28°C° 0,8 mm 6 m/S 751 mmHg 85%
    08:00 +30°C° 0,8 mm 6 m/S 752 mmHg 82%
    09:00 +32°C° 0,8 mm 6 m/S 752 mmHg 80%
    10:00 +32°C° 1 mm 6 m/S 752 mmHg 77%
    11:00 +33°C° 1 mm 7 m/S 751 mmHg 75%
    12:00 +33°C° 1 mm 7 m/S 751 mmHg 72%
    13:00 +33°C° 1,1 mm 7 m/S 751 mmHg 72%
    14:00 +33°C° 1,1 mm 7 m/S 750 mmHg 73%
    15:00 +33°C° 1,1 mm 8 m/S 750 mmHg 73%
    16:00 +33°C° 0,2 mm 7 m/S 750 mmHg 73%
    17:00 +33°C° 0,2 mm 7 m/S 750 mmHg 73%
    18:00 +33°C° 0,2 mm 6 m/S 750 mmHg 74%
    19:00 +32°C° 1 mm 6 m/S 751 mmHg 78%
    20:00 +30°C° 1 mm 6 m/S 751 mmHg 82%
    21:00 +29°C° 1 mm 7 m/S 752 mmHg 86%
    22:00 +29°C° 0,8 mm 7 m/S 751 mmHg 86%
    23:00 +29°C° 0,8 mm 7 m/S 751 mmHg 86%

    24 Januar, Mittwoch

    Zeit Temperatur Niederschläge Wind Luftdruck Luftfeuchtigkeit
    00:00 +29°C° 0,8 mm 7 m/S 751 mmHg 85%
    01:00 +29°C° 0,8 mm 7 m/S 751 mmHg 86%
    02:00 +29°C° 0,8 mm 8 m/S 750 mmHg 86%
    03:00 +29°C° 0,8 mm 8 m/S 750 mmHg 87%
    04:00 +29°C° 2,6 mm 8 m/S 750 mmHg 87%
    05:00 +29°C° 2,6 mm 9 m/S 750 mmHg 86%
    06:00 +29°C° 2,6 mm 9 m/S 751 mmHg 86%
    07:00 +29°C° 2 mm 8 m/S 751 mmHg 85%
    08:00 +31°C° 2 mm 8 m/S 751 mmHg 84%
    09:00 +32°C° 2 mm 8 m/S 751 mmHg 83%
    10:00 +32°C° 2,5 mm 8 m/S 751 mmHg 83%
    11:00 +32°C° 2,5 mm 8 m/S 751 mmHg 83%
    12:00 +32°C° 2,5 mm 8 m/S 750 mmHg 83%
    13:00 +32°C° 1,2 mm 8 m/S 750 mmHg 84%
    14:00 +32°C° 1,2 mm 7 m/S 750 mmHg 84%
    15:00 +32°C° 1,2 mm 7 m/S 749 mmHg 84%
    16:00 +32°C° 0,5 mm 7 m/S 750 mmHg 84%
    17:00 +32°C° 0,5 mm 7 m/S 750 mmHg 85%
    18:00 +32°C° 0,5 mm 6 m/S 750 mmHg 85%
    19:00 +30°C° 1,4 mm 6 m/S 750 mmHg 87%
    20:00 +30°C° 1,4 mm 6 m/S 750 mmHg 88%
    21:00 +30°C° 1,4 mm 6 m/S 751 mmHg 89%
    22:00 +30°C° 0,9 mm 7 m/S 751 mmHg 88%
    23:00 +30°C° 0,9 mm 7 m/S 750 mmHg 88%
    Mehr zeigen